Regional Weather Roundup
Issued by NWS Cleveland, OH

Home | Current Version | Previous Version | Graphics & Text | Print | Product List | Glossary On
Versions: 1 2 3 4 5 6 7 8 9 10 11 12 13 14 15 16 17 18 19 20 21 22 23 24 25 26 27 28 29 30 31 32 33 34 35 36 37 38 39 40 41 42 43 44 45 46 47 48 49 50
000
ASUS41 KCLE 240100
RWRCLE
OHIO REGIONAL WEATHER ROUNDUP
NATIONAL WEATHER SERVICE WILMINGTON, OH
900 PM EDT WED AUG 23 2017

NOTE: "FAIR" INDICATES FEW OR NO CLOUDS BELOW 12,000 FEET WITH NO
SIGNIFICANT WEATHER AND/OR OBSTRUCTIONS TO VISIBILITY.

OHZ001>008-015>018-024>027-034-035-043-044-240200-
   NORTHWEST OHIO

CITY           SKY/WX    TMP DP  RH WIND       PRES   REMARKS
DEFIANCE       FAIR      64  51  62 NW7       29.99R
FINDLAY        FAIR      68  51  54 W5        29.97R
TOLEDO EXPRESS FAIR      67  52  58 W8        29.97R
TOLEDO EXEC    FAIR      67  52  58 NW8       29.97R
LIMA           FAIR      65  54  67 NW6       29.99R
$$

OHZ009>014-019>023-028>033-038-089-240200-
   NORTHEAST OHIO

CITY           SKY/WX    TMP DP  RH WIND       PRES   REMARKS
CLE-HOPKINS    MOCLDY    70  54  56 W3        29.97S
CLE-LAKEFRONT  FAIR      70  56  61 N5        29.94S
CUY CO. ARPT   PTCLDY    68  57  68 N5        29.96S
LORAIN-ELYRIA  CLOUDY    65  58  78 SW3       29.96S
ASHTABULA      CLOUDY    64  59  83 CALM      29.96S
AKRON-CANTON   FAIR      65  53  65 NW5       29.97S
WOOSTER        NOT AVBL
MANSFIELD      FAIR      66  55  67 W3        29.98S
YOUNGSTOWN     FAIR      64  54  69 NW5       29.96S
$$

OHZ042-051>053-060>062-070>072-077>081-240200-
  SOUTHWEST OHIO

CITY           SKY/WX    TMP DP  RH WIND       PRES   REMARKS
CINC-COVINGTON FAIR      70  54  56 NW8       29.99S
CINC-LUNKEN    FAIR      72  53  51 NW6       29.99R
HAMILTON       FAIR      64  56  75 NW3       30.00R
DAYTON         NOT AVBL
WRIGHT-PAT AFB NOT AVBL
DAYTON GENERAL FAIR      70  50  49 NW5       29.99R
WILMINGTON     FAIR      69  55  60 NW3       29.99R
$$

OHZ036-037-039>041-045>050-054>059-063>069-073>076-082>088-240200-
  CENTRAL AND SOUTHEAST OHIO

CITY           SKY/WX    TMP DP  RH WIND       PRES   REMARKS
COLUMBUS       FAIR      70  53  54 NW7       29.97R
OSU AIRPORT    FAIR      68  54  60 NW5       29.97S
BOLTON FIELD   NOT AVBL
RICKENBACK AFB NOT AVBL
NEWARK         FAIR      64  58  80 CALM      29.97R
MARION         MOCLDY    68  54  60 NW3       29.98S
LANCASTER      FAIR      64  58  80 CALM      29.98S
ZANESVILLE     FAIR      63  57  81 CALM      29.97S
NEW PHILLY     FAIR      63  59  87 CALM      29.97S
$$



USA.gov is the U.S. government's official web portal to all federal, state and local government web resources and services.